Cloud_Cover
100 100 100 100 100 100 99 19 5 30 67 35 38 96 100 100 100 91 76 34 6 0
100 100 100 100 100 100 94 62 47 45 80 100 100 100 100 100 100 84 95 8 5 0
100 100 100 100 100 100 100 100 100 100 100 87 100 100 100 91 99 100 69 86 16 2
100 100 100 100 100 100 100 100 100 100 100 100 100 100 100 100 94 100 48 53 7 3
100 100 100 100 100 100 100 100 100 100 100 100 100 100 99 100 100 100 85 22 4 6
100 95 52 100 100 100 100 100 100 100 100 100 100 100 100 100 100 94 90 8 13 80
100 59 37 100 100 100 100 100 100 100 100 100 100 100 100 100 98 100 66 5 48 56
100 100 100 100 100 100 100 100 100 100 100 100 100 100 100 100 72 100 17 90 5 29
100 100 100 100 100 100 100 100 100 100 100 100 100 100 100 100 99 69 100 12 58 100
100 100 100 100 100 100 100 100 100 100 100 100 100 100 100 100 100 46 76 80 99 100
100 100 100 100 100 100 100 100 100 100 100 100 100 100 100 100 100 95 78 93 100 100
100 100 100 100 100 100 100 100 100 100 100 100 100 100 100 100 100 100 100 100 100 100
100 100 100 100 100 100 100 100 100 95 98 100 100 100 100 100 100 100 100 100 100 100
100 100 100 100 100 100 100 100 100 100 100 100 100 100 100 100 66 100 100 98 100 100